User: anonymous   Login
Location: Morlupo
(42.1333°N, 12.5000°E)
Time: 22:41:54
(UTC+00:00)
Language:

Meteor 1-21 - Orbit

View from above orbital plane
View from above orbital plane
View from above satellite
View from above satellite

Ground track
Ground track

The orbit data is extracted from the following two-line orbital elements,

1 07714U 75023A   21209.90180080  .00000021  00000-0  53904-5 0  9995
2 07714  81.2102 168.4216 0027129 344.5367  15.4970 14.08037729696408
Epoch (UTC): 28 July 2021 21:38:35
Eccentricity: 0.0027129
inclination: 81.2102°
perigee height: 846 km
apogee height: 886 km
right ascension of ascending node: 168.4216°
argument of perigee: 344.5367°
revolutions per day: 14.08037729
mean anomaly at epoch: 15.4970°
orbit number at epoch: 69640

The dashed part of the orbit path shows where the satellite is in the earth's shadow,  

DLR